Temp
68 68 69 69 69 69 68 69 68 65 66 69 70 71 72 72 72 75 74 71 69 69 68 68 68 69 70 71 71 71 71 71 71 71 72 72 73 74
69 67 67 68 69 69 69 68 68 67 66 68 70 70 72 73 73 73 73 71 70 68 68 67 67 68 69 69 69 69 69 69 69 69 69 70 70 71
68 67 67 68 68 68 68 68 67 67 67 68 68 69 71 72 73 73 74 73 74 67 67 67 66 66 67 68 67 67 68 68 68 68 68 68 69 70
68 67 68 68 67 67 68 67 67 66 68 66 67 68 68 70 71 71 73 75 73 71 67 66 66 65 64 64 64 64 64 64 64 65 66 66 67 68
69 68 68 68 67 67 66 68 67 67 66 67 68 68 68 69 69 68 69 70 72 70 67 66 66 66 65 64 64 63 62 62 61 61 61 62 64 66
70 70 69 68 68 67 67 67 67 66 66 64 66 66 67 68 67 68 67 68 69 74 72 68 67 66 66 63 63 63 61 59 59 59 59 59 60 62
70 69 69 70 69 68 69 67 67 66 66 64 63 63 62 65 66 68 65 64 68 69 70 71 72 72 72 67 68 66 63 61 59 58 57 57 57 58
69 68 69 68 68 67 67 67 68 67 66 65 63 65 64 64 63 61 64 64 65 68 67 66 69 69 71 71 66 63 62 61 59 59 58 57 57 57
69 67 68 69 68 70 66 66 66 66 67 67 64 64 64 65 63 60 61 63 63 68 66 65 67 67 70 71 63 62 61 60 59 59 59 58 57 56
69 68 68 68 68 68 69 68 68 68 67 66 65 64 64 64 65 64 64 63 62 65 64 59 66 66 69 69 63 62 61 59 59 58 58 57 55 53
69 69 68 68 65 63 67 67 67 66 63 62 62 61 61 62 64 63 61 59 58 63 63 63 65 64 66 68 70 62 59 57 57 57 57 56 53 52
68 68 64 68 60 60 68 67 65 64 64 64 64 62 62 64 62 64 65 62 61 60 64 61 63 63 62 65 65 67 68 60 55 55 56 55 52 65
67 66 66 59 56 55 60 67 65 64 64 66 66 64 64 65 65 64 63 63 60 61 66 64 62 62 60 60 63 66 67 67 67 65 56 52 51 54
66 66 65 55 53 53 57 59 57 61 64 64 63 63 64 64 65 64 62 63 64 64 65 62 62 59 57 57 58 64 65 66 65 64 64 58 53 53
65 62 56 51 50 53 55 56 57 62 62 62 62 62 62 64 62 62 61 61 60 61 63 60 60 59 55 55 57 60 59 64 64 61 62 62 61 62
59 60 58 57 56 58 57 58 62 62 62 62 61 62 61 61 62 62 62 61 60 62 62 60 58 56 58 58 59 60 62 56 62 61 60 60 61 61
60 60 59 59 58 59 59 59 59 60 59 59 60 60 61 61 60 60 59 59 59 58 60 62 59 57 58 57 58 61 60 60 62 59 57 56 58 59
61 61 60 60 59 58 57 56 57 58 60 60 60 60 61 60 60 58 58 58 57 57 57 58 57 60 60 61 59 60 59 58 59 57 56 54 55 58
62 61 60 58 58 58 59 60 60 60 60 60 60 60 60 59 58 58 57 57 57 57 58 55 55 55 52 53 60 55 54 58 57 55 56 54 51 54
61 60 59 58 58 59 59 60 60 60 60 60 60 60 59 59 57 57 57 56 57 57 57 58 56 54 52 53 52 58 50 55 55 53 53 55 54 54
60 60 60 60 61 61 61 60 59 59 58 57 58 58 58 58 57 57 57 50 52 56 56 58 58 52 55 55 54 56 59 50 51 52 52 48 46 45
59 60 59 59 60 59 58 57 56 55 56 57 57 58 57 58 59 57 57 58 57 57 56 57 56 57 56 53 52 52 54 56 55 53 52 51 45 39
57 59 57 58 57 57 57 57 57 58 57 57 57 56 56 57 57 57 58 58 58 58 56 57 58 57 55 52 50 51 50 51 52 50 53 53 52 50
MSLP
1019.26 1019.61 1019.74 1019.96 1020.10 1020.19 1020.32 1020.44 1020.81 1021.44 1021.40 1020.96 1020.93 1020.57 1020.41 1020.52 1020.60 1020.71 1020.73 1020.77 1020.96 1021.07 1021.14 1021.24 1021.31 1021.28 1021.21 1021.14 1021.02 1020.94 1020.89 1020.88 1020.86 1020.79 1020.72 1020.69 1020.69 1020.59
1018.85 1019.33 1019.53 1019.57 1019.76 1019.93 1020.04 1020.19 1020.44 1020.73 1020.91 1020.71 1020.64 1020.61 1020.35 1020.22 1020.25 1020.35 1020.49 1020.67 1020.64 1020.61 1020.64 1020.71 1020.69 1020.71 1020.72 1020.71 1020.63 1020.51 1020.40 1020.32 1020.30 1020.28 1020.23 1020.20 1020.30 1020.26
1018.49 1018.86 1019.00 1019.11 1019.36 1019.59 1019.75 1020.00 1020.05 1020.16 1020.50 1020.60 1020.64 1020.55 1020.37 1020.30 1020.27 1020.33 1020.35 1020.34 1020.17 1020.17 1020.30 1020.28 1020.32 1020.35 1020.29 1020.24 1020.14 1020.06 1020.08 1019.93 1019.81 1019.69 1019.69 1019.70 1019.67 1019.73
1017.85 1018.23 1018.44 1018.80 1018.87 1019.11 1019.47 1019.61 1019.71 1019.93 1020.02 1020.25 1020.43 1020.29 1020.31 1020.22 1020.25 1020.20 1020.06 1020.01 1019.99 1019.80 1019.76 1019.76 1019.85 1019.79 1019.73 1019.87 1019.92 1019.87 1019.80 1019.71 1019.62 1019.48 1019.33 1019.31 1019.21 1019.11
1017.01 1017.47 1017.70 1018.14 1018.37 1018.59 1018.99 1019.32 1019.59 1019.72 1019.93 1020.15 1020.22 1020.42 1020.47 1020.35 1020.26 1020.19 1019.99 1019.87 1019.77 1019.78 1019.66 1019.64 1019.59 1019.54 1019.67 1019.54 1019.49 1019.49 1019.38 1019.33 1019.11 1019.25 1019.10 1018.87 1018.80 1018.67
1016.18 1016.51 1016.83 1017.16 1017.46 1018.01 1018.35 1018.82 1019.31 1019.68 1019.86 1020.11 1019.98 1020.21 1020.21 1020.23 1020.21 1020.08 1019.82 1019.58 1019.52 1019.24 1019.33 1019.45 1019.48 1019.34 1019.22 1019.29 1019.18 1019.12 1019.02 1018.79 1018.76 1018.70 1018.60 1018.51 1018.35 1018.16
1015.34 1015.73 1016.39 1017.06 1017.40 1017.33 1017.86 1018.20 1018.74 1019.19 1019.76 1019.93 1020.19 1020.00 1020.06 1020.12 1020.14 1019.98 1020.03 1019.90 1019.30 1019.03 1018.92 1018.85 1018.87 1018.88 1018.79 1018.71 1018.66 1018.64 1018.54 1018.37 1018.21 1018.16 1018.07 1017.95 1017.82 1017.70
1014.43 1014.59 1014.89 1015.56 1016.65 1017.01 1017.10 1017.42 1017.72 1018.00 1018.62 1019.06 1019.37 1019.53 1019.57 1019.76 1019.77 1020.07 1020.13 1019.76 1019.10 1019.05 1019.05 1019.04 1018.97 1018.65 1018.32 1018.19 1018.04 1017.97 1017.97 1017.92 1017.82 1017.61 1017.50 1017.60 1017.52 1017.32
1013.14 1013.44 1014.57 1015.10 1015.69 1016.22 1016.43 1016.44 1016.77 1017.06 1017.20 1017.78 1018.37 1018.61 1018.86 1018.97 1019.13 1019.31 1019.61 1019.76 1019.31 1018.95 1019.09 1018.68 1018.53 1018.34 1017.79 1017.63 1017.60 1017.57 1017.46 1017.26 1017.16 1016.98 1016.90 1017.01 1017.05 1016.97
1012.20 1012.80 1013.42 1014.11 1014.04 1014.43 1015.31 1015.94 1016.42 1016.67 1017.09 1017.17 1017.53 1017.83 1018.06 1018.19 1018.87 1018.74 1018.71 1019.29 1019.21 1018.74 1019.16 1018.82 1018.24 1017.89 1017.49 1017.25 1017.07 1016.86 1016.76 1016.72 1016.73 1016.62 1016.49 1016.51 1016.45 1016.38
1011.30 1011.70 1012.13 1013.06 1013.64 1013.88 1013.87 1015.22 1015.87 1016.26 1016.87 1017.09 1017.07 1017.31 1017.55 1017.92 1018.27 1018.87 1018.67 1018.86 1018.79 1018.42 1018.65 1018.60 1018.11 1017.81 1017.44 1016.91 1016.55 1016.53 1016.48 1016.44 1016.31 1016.21 1016.07 1015.98 1015.94 1015.92
1010.78 1011.02 1011.42 1011.22 1012.84 1014.00 1014.03 1014.39 1015.22 1015.72 1016.40 1016.93 1017.15 1017.18 1017.61 1017.82 1018.22 1018.21 1018.19 1018.26 1018.25 1018.17 1018.12 1018.53 1017.95 1017.85 1017.19 1016.84 1016.71 1016.35 1016.16 1016.00 1015.89 1015.70 1015.47 1015.40 1015.39 1015.05
1010.28 1011.29 1011.50 1010.19 1011.23 1012.87 1013.66 1014.20 1014.26 1015.03 1015.81 1016.06 1016.50 1016.95 1017.26 1017.38 1017.91 1018.01 1017.91 1017.95 1017.79 1017.65 1017.55 1017.98 1017.80 1017.74 1017.62 1016.99 1016.62 1016.08 1015.79 1015.59 1015.39 1015.10 1014.92 1014.92 1014.81 1014.75
1008.94 1010.95 1012.01 1011.18 1011.32 1012.09 1013.13 1013.21 1013.92 1014.65 1015.29 1015.84 1016.10 1016.53 1016.87 1017.24 1017.61 1017.83 1017.85 1017.79 1017.39 1017.38 1017.46 1017.73 1017.59 1017.53 1017.45 1017.01 1016.38 1015.78 1015.53 1015.32 1015.05 1014.77 1014.57 1014.38 1014.17 1013.81
1008.10 1009.66 1010.86 1010.83 1011.40 1011.96 1012.49 1012.94 1013.78 1014.56 1014.89 1015.44 1016.06 1016.25 1016.55 1016.84 1017.54 1017.74 1017.69 1017.56 1017.21 1016.99 1017.04 1017.39 1017.41 1017.27 1017.30 1016.84 1016.30 1015.61 1015.26 1014.87 1014.68 1014.63 1014.33 1014.01 1013.53 1012.99
1008.62 1008.42 1009.58 1010.71 1011.62 1012.29 1013.02 1013.26 1013.73 1014.21 1014.56 1015.12 1015.35 1015.84 1016.43 1016.80 1017.45 1017.63 1017.51 1017.42 1017.04 1016.56 1016.47 1016.81 1017.01 1017.10 1016.61 1016.22 1015.98 1015.32 1014.94 1014.91 1014.50 1014.29 1014.00 1013.50 1012.83 1012.38
1008.22 1006.57 1009.11 1010.80 1011.40 1012.03 1012.80 1013.51 1013.46 1013.89 1014.62 1015.05 1015.28 1015.55 1015.84 1016.29 1017.09 1017.37 1017.36 1017.36 1017.34 1016.68 1016.46 1016.33 1016.61 1016.60 1016.25 1015.98 1015.55 1014.95 1014.64 1014.45 1014.17 1014.01 1013.66 1012.82 1012.13 1011.62
1008.02 1008.61 1009.31 1010.35 1011.15 1011.78 1012.46 1013.65 1013.20 1013.56 1014.26 1014.84 1015.13 1015.20 1015.53 1016.21 1016.72 1017.09 1017.18 1017.17 1016.92 1016.54 1016.41 1016.49 1016.52 1016.09 1015.69 1015.01 1015.04 1014.66 1014.57 1014.41 1013.97 1013.75 1013.37 1012.42 1011.18 1010.60
1007.70 1007.81 1009.13 1010.03 1011.11 1011.53 1012.14 1012.86 1012.85 1013.11 1014.09 1014.69 1014.97 1015.11 1015.33 1016.07 1016.35 1016.73 1016.93 1016.79 1016.42 1016.34 1016.16 1016.52 1016.48 1016.35 1015.87 1015.06 1014.65 1014.90 1014.76 1014.18 1013.72 1013.13 1012.64 1011.94 1010.96 1009.96
1007.73 1008.23 1009.03 1009.91 1010.42 1011.11 1011.64 1012.28 1012.62 1013.27 1013.79 1014.44 1014.75 1014.93 1015.08 1015.79 1016.08 1016.46 1016.87 1016.36 1016.11 1016.04 1015.92 1016.02 1016.15 1016.19 1016.00 1015.34 1015.00 1014.41 1014.48 1014.19 1013.53 1012.92 1012.02 1011.22 1010.56 1009.49
1008.45 1008.70 1009.19 1009.53 1009.98 1010.60 1011.25 1012.02 1012.54 1012.80 1013.61 1014.28 1014.88 1014.73 1014.92 1015.28 1015.90 1016.22 1016.20 1015.97 1015.95 1015.82 1015.61 1015.55 1015.74 1016.11 1015.78 1015.62 1015.02 1014.05 1013.58 1013.77 1013.56 1013.06 1012.06 1011.04 1009.74 1008.68
1008.43 1008.97 1009.00 1009.52 1009.89 1010.62 1011.46 1011.77 1012.27 1013.01 1013.76 1014.15 1014.72 1014.75 1015.21 1015.30 1015.50 1015.64 1015.38 1015.43 1015.48 1015.47 1015.49 1015.43 1015.56 1015.54 1015.35 1015.29 1014.83 1014.31 1013.47 1012.92 1012.60 1012.31 1011.96 1011.53 1010.65 1009.08
1008.62 1009.27 1009.67 1009.71 1010.07 1010.66 1011.37 1011.78 1012.25 1013.09 1013.83 1014.14 1014.36 1014.71 1014.97 1015.14 1015.56 1015.15 1014.92 1015.14 1015.20 1015.19 1015.27 1015.08 1015.07 1015.23 1015.20 1015.23 1015.01 1014.48 1013.84 1013.10 1012.44 1011.69 1011.21 1010.85 1010.43 1009.77
Wind_Speed
5 5 3 3 3 3 2 2 3 2 2 2 1 2 2 5 6 7 7 8 8 9 10 7 9 10 10 11 11 11 11 11 11 11 11 11 11 11
5 6 5 3 4 3 3 3 2 3 3 3 3 2 2 1 4 6 6 8 10 10 10 10 11 11 11 11 12 13 13 13 12 10 11 12 12 12
5 7 7 6 5 5 4 3 3 3 4 1 3 1 2 2 2 1 2 5 6 8 8 9 9 9 9 10 10 10 11 11 11 11 10 11 11 13
10 8 8 6 6 6 5 5 4 4 3 4 2 3 4 1 2 3 3 4 5 5 6 6 7 7 6 6 6 6 7 8 8 9 10 11 11 12
11 11 10 9 8 5 6 6 4 4 3 3 3 1 1 1 2 2 3 2 3 6 8 6 5 6 4 2 6 7 9 9 8 9 9 11 11 13
11 11 11 12 10 9 8 8 5 4 4 3 3 3 3 1 1 2 3 2 3 3 5 6 6 5 3 7 7 8 8 8 8 8 8 9 11 12
10 10 9 8 9 10 6 7 7 5 5 5 2 3 2 2 3 1 3 3 3 4 3 2 2 3 4 5 8 10 10 9 8 8 8 9 9 10
12 11 11 13 11 14 14 11 11 9 8 5 3 5 4 3 3 2 2 3 3 2 1 4 3 7 6 6 9 10 11 9 9 8 8 9 10 9
13 11 7 6 11 10 14 14 13 14 8 7 6 6 4 5 4 4 4 5 4 3 1 8 2 7 6 6 9 10 11 11 11 10 9 9 9 9
12 11 10 11 12 14 10 8 9 9 8 5 6 5 5 6 5 4 3 4 3 6 5 5 3 5 5 5 10 11 11 10 10 10 10 10 10 10
12 12 13 10 11 15 11 9 7 5 6 9 8 6 9 7 6 4 5 4 3 3 4 3 2 3 3 6 6 7 9 9 10 9 10 11 10 8
11 10 15 14 12 14 9 9 8 7 8 9 7 4 6 6 9 8 4 5 3 2 3 4 2 2 4 2 4 6 6 8 8 10 12 10 9 7
6 5 8 15 16 15 10 8 7 8 10 7 5 4 4 3 3 5 6 5 4 4 2 4 2 2 3 4 3 5 5 7 7 9 9 9 8 6
9 4 4 12 13 14 12 10 10 7 5 6 6 5 3 2 2 3 4 5 5 7 2 5 3 4 2 3 5 3 5 7 7 7 7 8 10 12
8 10 13 11 11 8 9 10 12 6 6 6 5 4 3 3 2 2 3 2 3 4 4 4 6 4 4 5 5 6 5 5 6 5 9 9 11 11
14 9 9 9 6 6 5 7 5 6 7 5 5 4 3 3 2 2 2 0 2 3 1 3 5 4 3 6 5 8 7 4 6 9 10 11 12 11
7 9 9 5 5 5 4 4 5 6 5 5 5 5 4 3 3 3 1 1 2 2 3 4 2 6 6 7 6 8 6 7 9 10 11 12 12 13
5 7 8 7 6 6 7 6 5 7 6 6 5 5 4 4 4 3 2 2 2 1 3 3 3 4 3 5 12 7 5 7 10 10 11 12 13 13
5 7 7 7 5 6 7 7 6 6 6 6 4 5 4 4 4 3 2 2 2 2 3 1 3 2 5 8 4 8 6 8 10 11 11 12 14 13
5 7 7 6 6 7 7 5 5 5 5 5 5 5 5 4 3 3 3 3 2 1 3 3 3 3 3 5 5 7 8 7 10 11 13 12 13 21
5 6 6 7 6 6 5 5 6 6 5 6 6 5 5 5 4 4 3 3 2 1 3 4 4 4 4 3 6 8 8 7 9 10 12 12 12 11
6 5 5 5 6 6 6 6 6 6 7 6 5 5 5 5 5 5 3 2 1 1 3 5 4 2 1 2 7 11 11 10 10 10 13 12 11 12
6 5 5 6 5 6 6 6 6 6 5 5 6 6 6 5 4 3 3 2 1 1 2 3 3 2 3 3 5 8 14 12 11 11 10 11 18 19
Wind_Direction
191 187 180 182 180 174 173 159 148 184 252 248 251 269 256 229 232 232 235 241 251 251 255 249 259 262 264 272 280 283 277 271 267 262 261 262 265 269
187 185 190 185 183 180 177 172 173 165 200 209 224 281 299 285 227 222 240 255 252 245 244 247 248 253 255 256 259 266 274 277 276 273 264 264 264 262
188 190 200 183 186 191 180 175 184 170 196 192 222 255 269 285 244 243 251 265 273 254 257 260 261 262 261 266 270 273 276 280 284 284 279 264 256 257
200 192 201 190 193 184 191 193 194 188 173 210 202 213 218 236 264 287 296 291 287 280 270 252 253 262 257 256 266 273 275 273 279 276 274 271 266 258
198 199 198 192 201 183 190 201 201 191 189 183 233 215 250 225 236 242 256 271 270 285 277 269 244 256 265 231 288 285 282 281 273 269 268 271 270 269
202 204 202 201 199 190 196 199 197 197 186 208 206 234 230 201 249 282 301 230 277 276 273 259 271 272 261 281 283 278 271 270 272 280 278 267 267 263
205 206 212 214 215 199 189 193 187 193 209 203 215 194 220 196 220 217 272 301 274 248 282 260 258 269 280 294 284 269 266 267 267 265 274 286 283 273
203 209 194 181 222 216 201 187 191 187 207 203 193 228 204 193 188 201 282 282 292 159 332 284 260 282 280 282 271 267 269 264 259 263 268 268 275 267
204 205 184 202 200 212 212 206 200 196 186 186 211 211 212 199 171 182 218 249 248 273 258 284 242 281 287 286 264 268 270 273 280 280 277 272 261 265
196 186 190 200 192 197 201 204 214 209 197 182 191 194 206 168 205 213 204 243 270 274 228 254 270 271 293 275 263 269 272 274 275 271 282 291 280 267
190 188 187 201 217 197 176 198 203 190 199 196 207 226 208 193 198 193 224 217 257 256 191 246 248 266 270 283 294 297 288 284 286 293 286 280 272 269
199 192 190 173 167 191 190 183 188 186 177 193 214 219 216 218 201 209 202 236 239 258 176 219 236 279 287 244 295 288 292 285 296 291 290 290 276 297
177 186 220 176 163 181 183 179 183 155 193 193 185 179 197 196 215 218 216 215 200 238 189 218 242 248 245 298 275 275 281 298 302 297 289 278 278 266
143 180 241 164 163 175 178 170 152 142 152 165 166 183 191 207 204 202 210 219 233 256 266 219 260 244 255 278 275 279 283 294 294 298 307 301 281 272
116 177 185 159 152 159 178 153 147 153 152 158 180 170 170 152 201 219 202 214 243 253 261 220 231 252 229 246 282 287 312 304 298 297 310 305 299 296
157 136 119 122 119 125 115 154 155 163 165 174 167 151 141 162 210 231 221 352 286 305 266 240 219 215 263 249 260 285 298 293 305 311 313 301 294 292
150 112 118 126 128 138 126 153 148 147 164 163 162 162 160 164 204 201 193 170 258 306 306 313 277 247 242 256 282 286 301 304 313 312 308 302 297 295
109 136 146 150 161 160 149 176 160 166 175 176 174 173 171 197 201 179 186 219 242 248 279 300 312 319 300 258 224 280 290 294 308 309 303 301 300 302
170 150 156 155 165 155 164 171 165 173 170 186 181 186 176 189 180 184 194 207 210 259 289 268 266 293 300 297 307 230 276 308 313 311 310 307 302 300
147 160 154 159 154 158 165 169 148 156 174 176 187 185 172 172 174 185 205 200 220 285 296 277 264 265 267 299 309 296 221 290 317 314 311 309 295 294
144 144 157 152 153 162 165 166 168 164 165 171 179 170 163 167 178 185 191 193 204 208 301 301 333 294 277 274 279 301 316 238 273 306 309 308 317 311
144 152 145 151 156 154 162 150 138 143 160 166 171 158 168 181 181 183 175 178 191 233 284 295 318 322 305 294 312 315 320 327 313 301 294 287 334 321
150 162 169 151 141 136 143 146 148 159 170 172 173 179 169 170 195 177 156 167 278 289 308 313 334 1 346 296 314 323 328 334 334 331 336 333 339 333